Montana Department of Transportation

Main Content

Accidents and Incidents Report

Hourly Weather Roundup

ASUS45 KTFX 212319
RWRMT 
MONTANA HOURLY WEATHER ROUNDUP
NATIONAL WEATHER SERVICE GREAT FALLS MT
519 PM MDT TUE OCT 21 2014

NOTE: "FAIR" INDICATES FEW OR NO CLOUDS BELOW 12000 FEET WITH NO
SIGNIFICANT WEATHER AND/OR OBSTRUCTIONS TO VISIBILITY.

* THESE STATIONS ARE NOT UNDER NWS QUALITY CONTROL. THEY DO NOT
   REPORT WEATHER SUCH AS PRECIPITATION OR FOG.

MTZ001.007-043-220000-
WEST OF THE DIVIDE
CITY           SKY/WX    TMP DP  RH WIND       PRES   REMARKS
KALISPELL      LGT RAIN  50  45  83 S8G24     29.89R 
MISSOULA       CLOUDY    48  45  89 NE3       29.97R 
BUTTE          LGT RAIN  39  36  89 CALM      29.97R 
MULLAN PASS    CLOUDY    36  36 100 VRB6      29.97R WCI  31 
* ESSEX        N/A       45  44  96 SW1G6      N/A   
* LINCOLN      N/A       40  38  93 SW5G11     N/A   WCI  36 
* LOOKOUT PASS N/A       44  37  76 SE6G13     N/A   
* POLSON       N/A       47  46  96 S2G9       N/A   
* RONAN APT    CLOUDY    48  45  89 SE5        N/A   
* SEELEY LAKE  N/A       44  40  86 W2         N/A   
* THOMP F APT  MOCLDY    43  28  56 S12G26     N/A   
--------------------------------

MTZ008-052.055-220000-
SOUTHWEST MONTANA
CITY           SKY/WX    TMP DP  RH WIND       PRES   REMARKS
BOZEMAN        LGT RAIN  43  37  79 W20G32    29.94R 
DILLON         LGT RAIN  43  37  79 S10       29.97R 
W YELLOWSTONE  CLOUDY    37  32  82 SW14G21   30.01R WCI  28 
* THREE FORKS  CLOUDY    45  45 100 W9         N/A   
* BOULDER HILL N/A       39  33  79 N1         N/A   
* MONIDA PASS  N/A       36  34  92 NW11G17    N/A   WCI  28 
* RAYNOLDS PAS N/A       39  31  73 W11G17     N/A   WCI  32 
* WHITEHALL    N/A       43  38  83 W10G17     N/A   
* WISE RIVER   N/A       39  35  86 W12G17     N/A   WCI  32 
--------------------------------

MTZ009.010-012-014-046-048-049-054-220000-
EAST SLOPES AND CENTRAL MONTANA
CITY           SKY/WX    TMP DP  RH WIND       PRES   REMARKS
CUT BANK       CLOUDY    46  45  96 W12       29.76R 
GREAT FALLS    LGT RAIN  45  45 100 SW14      29.81R 
HELENA         CLOUDY    45  37  74 W15G23    29.89R 
MALMSTROM AFB  LGT RAIN  46  45  96 SW14      29.83R 
* CONRAD       CLOUDY    48  48 100 N/A        N/A   
* DEARBORN     N/A       46  43  89 SW3        N/A   
* EAST GLACIER N/A       45  36  71 W19G26     N/A   
* MONARCH      N/A       40  37  89 W13G20     N/A   WCI  32 
* PENDROY      N/A       45  45 100 W6         N/A   
* ROGERS PASS  N/A       37  35  92 SE11G22    N/A   WCI  29 
* SAINT MARY   N/A       48  36  63 S7G17      N/A   
* SWEET GRASS  N/A       50  49  96 SW12G20    N/A   
* WHITE SULPH  N/A       43  37  79 W10G21     N/A   
--------------------------------

MTZ011-013-016-021-035-040-045-047-050-051-220000-
NORTH CENTRAL MONTANA
CITY           SKY/WX    TMP DP  RH WIND       PRES   REMARKS
HAVRE          LGT RAIN  55  48  77 W17G23    29.72R 
LEWISTOWN      MOCLDY    52  45  77 W14G20    29.77R 
* CHINOOK      CLOUDY    59  46  62 SW16G22   29.69R 
* FORT BENTON  MOCLDY    52  46  80 SW9       29.78R 
* CHESTER      N/A       49  46  89 W14G26     N/A   
* DENTON       N/A       52  47  83 W17G22     N/A   
* GEYSER       N/A       47  43  86 W17G24     N/A   
* JUDITH GAP   N/A       50  44  80 VRB20G34    N/A   
* LOMA         N/A       52  47  83 W13        N/A   
--------------------------------

MTZ017.020-022.027-061-062-220000-
NORTHEAST MONTANA
CITY           SKY/WX    TMP DP  RH WIND       PRES   REMARKS
GLASGOW        PTCLDY    72  43  35 NW8       29.57S 
GLENDIVE       CLEAR     68  45  44 S7        29.61R 
JORDAN         MOCLDY    72  41  33 N9        29.59R 
SIDNEY         CLEAR     70  48  46 CALM      29.59S 
WOLF POINT     PTCLDY    75  48  39 E3        29.55S 
* BEAVER HILL  N/A       74  40  29 S9         N/A   
* CIRCLE       N/A       78  45  31 NW2        N/A   
* LINDSAY DVD  N/A       74  44  34 S10        N/A   
* NAVAJO       N/A       69  42  38 SE7        N/A   
--------------------------------

MTZ028.042-056.058-220000-
SOUTHCENTRAL AND SOUTHEAST MONTANA
CITY           SKY/WX    TMP DP  RH WIND       PRES   REMARKS
BAKER          CLEAR     77  37  24 SW9       29.63R 
BILLINGS       MOCLDY    70  32  25 W18       29.70R 
LIVINGSTON     PTCLDY    55  23  29 SW37G54   29.80R 
MILES CITY     PTCLDY    73  39  29 W5        29.60S 
* LAUREL APT   MOCLDY    66  30  26 SW14G21    N/A   
* ROUNDUP APT  MOCLDY    70  28  21 SW18G29    N/A   
* ALZADA       N/A       79  37  22 S11G17     N/A   
* HYSHAM       N/A       69  34  28 W3         N/A   
* LAME DEER    N/A       68  37  32 W8G14      N/A   
* REED POINT   N/A       64  28  26 N7G16      N/A   
* ROSCOE HILL  N/A       59  19  21 SW16G24    N/A   
--------------------------------

REGIONAL REPORTS...DAKOTAS
CITY           SKY/WX    TMP DP  RH WIND       PRES   REMARKS
WILLISTON      CLEAR     73  43  34 S7        29.57F 
DICKINSON      CLEAR     75  46  36 S9        29.60S 
BEACH          N/A       73  41  32 SW7       29.62S 
CROSBY         CLEAR     70  41  35 S13G22    29.59S 
TIOGA          CLEAR     66  45  47 SE14      29.64S 
BISMARCK       CLEAR     81  48  32 S21G28    29.66S 
GRAND FORKS    CLEAR     63  43  48 S23G32    29.84F 
FARGO          CLEAR     64  41  43 SE25G33   29.89S 
BUFFALO SD     CLEAR     81  39  22 S13       29.59S 
RAPID CITY     CLEAR     77  45  32 S15       29.72F 
--------------------------------

REGIONAL REPORTS...WYOMING/IDAHO/WASHINGTON
CITY           SKY/WX    TMP DP  RH WIND       PRES   REMARKS
GILLETTE       PTCLDY    73  36  26 SW20G28   29.74R 
SHERIDAN       MOCLDY    77  36  23 SW23G28   29.67R 
CODY           MOCLDY   N/A N/A N/A W18G32    29.83R 
YELLOWSTONE LA MOCLDY    36  25  64 W9G21     30.05S WCI  29 
SALMON         MOCLDY    48  39  71 SE5       30.02R VSB 1 1/2 
MULLAN PASS    CLOUDY    36  36 100 VRB6      29.97S WCI  31 
SAND POINT     CLOUDY    52  43  72 S5        29.94R 
SPOKANE        MOCLDY    55  43  64 S15       29.94R 
--------------------------------

REGIONAL REPORTS...ALBERTA
CITY           SKY/WX    TMP DP  RH WIND       PRES   REMARKS
CALGARY        MOCLDY    59  28  31 W13       29.69R 
LETHBRIDGE     MOCLDY    55  34  45 W23       29.69R 
MEDICINE HAT   CLOUDY    55  48  77 W7        29.65S 
EDMONTON       MOCLDY    57  39  51 W5        29.65R 
WATERTON GATE  N/A       52  34  50 SW16G30    N/A   
CARDSTON       N/A       54  34  47 W13G20     N/A   
MILK RIVER     N/A       50  45  83 W13        N/A   
--------------------------------

REGIONAL REPORTS...SASKATCHEWAN
CITY           SKY/WX    TMP DP  RH WIND       PRES   REMARKS
SWIFT CURRENT  FAIR      66  34  31 W13       29.56R 
MOOSE JAW      MOCLDY    70  50  49 S9        29.52F 
REGINA         MOCLDY    64  46  52 SE12      29.55F 
VAL MARIE      N/A       66  41  40 NW5        N/A   
ASSINIBOIA     N/A       72  41  33 W12G20     N/A   
CORONACH       N/A       72  39  30 S7         N/A   

--------------------------------